Date String (YYYY-MM-DD hh:mm:ss) UTC,Instrument flags,absolute air pressure of the measurement (hPa),sample flow rate (lpm),inlet stack bypass flow (lpm),air temperature of the measurement (°C),ambient temperature measured by the external sensor (°C),aerosol sample conditioner tube jacket temperature (°C),OPC LED temperature (°C),internal box temperature (°C),relative humidity of the measurement (%),span deviation,mass concentration of particles derived from Lorenz-Mie calculation of OPC scattering (μg/m³),mass concentration of particles derived from Lorenz-Mie calculation of OPC scattering (μg/m³),mass concentration of particles derived from Lorenz-Mie calculation of OPC scattering (μg/m³)
DateTimeUTC,F1_M11,P_M11,Q1_M11,Q2_M11,T1_M11,T2_M11,T3_M11,T4_M11,T5_M11,U1_M11,ZSPAN_M11,X0_M11,X2_M11,X1_M11
2024-05-07 23:00:00,SystemResetWarning,0817.5,5.00,000.00,023.5,022.9,000.0,031.6,025.3,014.5,0000.0,0004.44,0000.47,0000.28
2024-05-07 23:01:00,SystemResetWarning,0817.4,5.00,000.00,023.5,022.9,000.0,031.7,025.3,014.3,0000.0,0004.51,0000.46,0000.28
2024-05-07 23:02:00,SystemResetWarning,0817.4,4.99,000.00,023.5,022.9,000.0,031.7,025.3,013.8,0000.0,0003.31,0000.45,0000.28
2024-05-07 23:03:00,SystemResetWarning,0817.6,5.00,000.00,023.5,022.8,000.0,031.7,025.2,013.9,0000.0,0003.44,0000.47,0000.28
2024-05-07 23:04:00,SystemResetWarning,0817.8,5.00,000.00,023.5,022.8,000.0,031.7,025.3,014.0,0000.0,0003.44,0000.47,0000.29
2024-05-07 23:05:00,SystemResetWarning,0817.7,5.00,000.00,023.5,022.8,000.0,031.7,025.3,014.0,0000.0,0003.48,0000.49,0000.29
2024-05-07 23:06:00,SystemResetWarning,0817.8,4.99,000.00,023.5,022.8,000.0,031.7,025.2,014.0,0000.0,0003.46,0000.49,0000.28
2024-05-07 23:07:00,SystemResetWarning,0817.9,5.00,000.00,023.5,022.8,000.0,031.7,025.2,014.1,0000.0,0003.49,0000.46,0000.28
2024-05-07 23:08:00,SystemResetWarning,0817.8,4.99,000.00,023.5,022.8,000.0,031.8,025.3,014.0,0000.0,0002.73,0000.46,0000.28
2024-05-07 23:09:00,SystemResetWarning,0818.2,5.00,000.00,023.5,022.7,000.0,031.8,025.2,014.2,0000.0,0002.53,0000.51,0000.28
2024-05-07 23:10:00,SystemResetWarning,0818.3,5.01,000.00,023.5,022.7,000.0,031.8,025.2,014.4,0000.0,0002.60,0000.54,0000.28
2024-05-07 23:11:00,SystemResetWarning,0818.3,5.01,000.00,023.5,022.7,000.0,031.8,025.2,014.7,0000.0,0002.65,0000.56,0000.28
2024-05-07 23:12:00,SystemResetWarning,0818.5,5.01,000.00,023.5,022.7,000.0,031.8,025.2,015.0,0000.0,0002.57,0000.58,0000.28
2024-05-07 23:13:00,SystemResetWarning,0818.4,5.00,000.00,023.5,022.6,000.0,031.8,025.2,016.1,0000.0,0002.70,0000.60,0000.28
2024-05-07 23:14:00,SystemResetWarning,0818.6,5.00,000.00,023.5,022.6,000.0,031.8,025.2,016.9,0000.0,0003.11,0000.62,0000.29
2024-05-07 23:15:00,SystemResetWarning,0818.6,5.00,000.00,023.5,022.6,000.0,031.8,025.1,017.4,0000.0,0003.98,0000.69,0000.29
2024-05-07 23:16:00,SystemResetWarning,0818.6,4.99,000.00,023.4,022.6,000.0,031.7,025.1,017.5,0000.0,0004.08,0000.70,0000.30
2024-05-07 23:17:00,SystemResetWarning,0818.4,4.99,000.00,023.4,022.6,000.0,031.7,025.1,018.3,0000.0,0004.56,0000.71,0000.31
2024-05-07 23:18:00,SystemResetWarning,0818.2,4.99,000.00,023.4,022.6,000.0,031.7,025.1,018.5,0000.0,0005.12,0000.74,0000.32
2024-05-07 23:19:00,SystemResetWarning,0818.2,5.00,000.00,023.4,022.6,000.0,031.7,025.1,018.3,0000.0,0005.91,0000.79,0000.32
2024-05-07 23:20:00,SystemResetWarning,0818.1,5.00,000.00,023.4,022.6,000.0,031.7,025.1,018.7,0000.0,0004.69,0000.75,0000.33
2024-05-07 23:21:00,SystemResetWarning,0818.0,5.00,000.00,023.5,022.6,000.0,031.7,025.1,018.6,0000.0,0004.72,0000.77,0000.34
2024-05-07 23:22:00,SystemResetWarning,0818.0,5.01,000.00,023.5,022.6,000.0,031.7,025.1,018.8,0000.0,0004.81,0000.81,0000.34
2024-05-07 23:23:00,SystemResetWarning,0818.0,5.00,000.00,023.5,022.7,000.0,031.7,025.1,019.0,0000.0,0004.71,0000.78,0000.34
2024-05-07 23:24:00,SystemResetWarning,0818.0,5.00,000.00,023.5,022.7,000.0,031.7,025.2,018.3,0000.0,0004.57,0000.77,0000.35
2024-05-07 23:25:00,SystemResetWarning,0818.0,5.01,000.00,023.5,022.7,000.0,031.7,025.2,017.9,0000.0,0004.12,0000.76,0000.34
2024-05-07 23:26:00,SystemResetWarning,0818.0,5.00,000.00,023.5,022.7,000.0,031.7,025.2,018.3,0000.0,0003.36,0000.71,0000.34
2024-05-07 23:27:00,SystemResetWarning,0818.0,5.01,000.00,023.5,022.7,000.0,031.7,025.1,018.1,0000.0,0003.25,0000.68,0000.34
2024-05-07 23:28:00,SystemResetWarning,0818.0,4.99,000.00,023.5,022.7,000.0,031.7,025.1,018.4,0000.0,0003.03,0000.68,0000.34
2024-05-07 23:29:00,SystemResetWarning,0818.0,4.99,000.00,023.5,022.7,000.0,031.7,025.2,018.7,0000.0,0003.81,0000.67,0000.34
2024-05-07 23:30:00,SystemResetWarning,0818.0,5.00,000.00,023.5,022.8,000.0,031.7,025.2,018.7,0000.0,0003.28,0000.65,0000.33
2024-05-07 23:31:00,SystemResetWarning,0818.0,5.00,000.00,023.5,022.8,000.0,031.7,025.2,018.6,0000.0,0003.07,0000.65,0000.33
2024-05-07 23:32:00,SystemResetWarning,0817.9,5.00,000.00,023.5,022.8,000.0,031.7,025.2,018.6,0000.0,0003.22,0000.67,0000.33
2024-05-07 23:33:00,SystemResetWarning,0817.7,5.01,000.00,023.5,022.8,000.0,031.7,025.2,018.7,0000.0,0003.26,0000.62,0000.32
2024-05-07 23:34:00,SystemResetWarning,0817.7,5.01,000.00,023.5,022.8,000.0,031.7,025.2,018.5,0000.0,0003.25,0000.62,0000.32
2024-05-07 23:35:00,SystemResetWarning,0817.6,5.00,000.00,023.5,022.8,000.0,031.7,025.3,017.8,0000.0,0003.31,0000.64,0000.32
2024-05-07 23:36:00,SystemResetWarning,0817.7,5.00,000.00,023.5,022.8,000.0,031.7,025.2,018.0,0000.0,0003.33,0000.66,0000.32
2024-05-07 23:37:00,SystemResetWarning,0817.8,5.00,000.00,023.5,022.9,000.0,031.7,025.2,018.9,0000.0,0003.36,0000.67,0000.32
2024-05-07 23:38:00,SystemResetWarning,0817.8,5.00,000.00,023.5,022.9,000.0,031.7,025.2,019.2,0000.0,0003.33,0000.69,0000.31
2024-05-07 23:39:00,SystemResetWarning,0817.7,4.98,000.00,023.5,022.9,000.0,031.7,025.3,018.5,0000.0,0003.33,0000.69,0000.31
2024-05-07 23:40:00,SystemResetWarning,0817.8,5.01,000.00,023.5,022.9,000.0,031.7,025.2,017.7,0000.0,0002.17,0000.70,0000.30
2024-05-07 23:41:00,SystemResetWarning,0817.8,5.01,000.00,023.6,022.9,000.0,031.7,025.2,017.8,0000.0,0002.85,0000.71,0000.30
2024-05-07 23:42:00,SystemResetWarning,0817.8,5.01,000.00,023.6,022.9,000.0,031.7,025.2,018.0,0000.0,0003.05,0000.74,0000.31
2024-05-07 23:43:00,SystemResetWarning,0817.8,5.00,000.00,023.6,022.9,000.0,031.7,025.3,018.2,0000.0,0002.94,0000.72,0000.31
2024-05-07 23:44:00,SystemResetWarning,0817.8,5.00,000.00,023.6,022.9,000.0,031.7,025.3,017.6,0000.0,0002.84,0000.72,0000.31
2024-05-07 23:45:00,SystemResetWarning,0817.8,4.99,000.00,023.6,022.9,000.0,031.7,025.3,017.5,0000.0,0002.84,0000.72,0000.31
2024-05-07 23:46:00,SystemResetWarning,0817.9,5.00,000.00,023.6,022.9,000.0,031.7,025.3,016.8,0000.0,0002.82,0000.70,0000.30
2024-05-07 23:47:00,SystemResetWarning,0817.9,5.01,000.00,023.6,022.9,000.0,031.7,025.4,017.3,0000.0,0002.85,0000.68,0000.29
2024-05-07 23:48:00,SystemResetWarning,0818.0,5.01,000.00,023.6,022.9,000.0,031.7,025.3,017.8,0000.0,0002.82,0000.67,0000.30
2024-05-07 23:49:00,SystemResetWarning,0817.9,5.00,000.00,023.6,022.9,000.0,031.7,025.3,017.8,0000.0,0004.07,0000.68,0000.30
2024-05-07 23:50:00,SystemResetWarning,0817.8,4.99,000.00,023.6,022.9,000.0,031.7,025.3,017.2,0000.0,0004.09,0000.69,0000.30
2024-05-07 23:51:00,SystemResetWarning,0817.8,5.00,000.00,023.6,022.9,000.0,031.8,025.3,017.0,0000.0,0004.19,0000.68,0000.29
2024-05-07 23:52:00,SystemResetWarning,0817.8,5.01,000.00,023.6,022.9,000.0,031.8,025.3,017.2,0000.0,0003.25,0000.66,0000.29
2024-05-07 23:53:00,SystemResetWarning,0817.8,5.01,000.00,023.6,022.9,000.0,031.8,025.3,017.6,0000.0,0003.01,0000.63,0000.28
2024-05-07 23:54:00,SystemResetWarning,0817.8,5.00,000.00,023.6,022.9,000.0,031.8,025.3,017.6,0000.0,0002.98,0000.63,0000.28
2024-05-07 23:55:00,SystemResetWarning,0817.8,4.99,000.00,023.6,022.9,000.0,031.8,025.3,017.1,0000.0,0003.67,0000.64,0000.28
2024-05-07 23:56:00,SystemResetWarning,0817.8,4.98,000.00,023.6,022.9,000.0,031.8,025.3,016.6,0000.0,0003.91,0000.65,0000.28
2024-05-07 23:57:00,SystemResetWarning,0817.8,5.01,000.00,023.6,022.9,000.0,031.8,025.3,016.8,0000.0,0003.91,0000.65,0000.28
2024-05-07 23:58:00,SystemResetWarning,0817.8,5.01,000.00,023.6,022.9,000.0,031.8,025.3,017.1,0000.0,0003.91,0000.63,0000.28
2024-05-07 23:59:00,SystemResetWarning,0817.8,5.01,000.00,023.6,022.9,000.0,031.8,025.3,017.2,0000.0,0004.59,0000.64,0000.28
